Voltar ao catálogo

STARLINK-2515

AtivoComunicaçõesVLEO
NORAD 48323·PAYLOAD·🇺🇸 United States

Lançado Apr 29, 2021 de Cape Canaveral Space Force Station

Loading…

Próximas Passagens (próximas 24 horas)

TLE

AtualizadoSource: CelesTrak SupGP

Época: Sep 15, 2026, 01:32 UTC

1 48323C 21036AZ  26258.06437500  .00033916  00000+0  10904-2 0  2585
2 48323  53.1585 299.7359 0001381  86.6435  60.7255 15.31692489    12

Acompanhe STARLINK-2515 em tempo real com AllMySat

Download on the App Store